Flag for Switzerland Weather past 2 weeks in Schlieren, Zurich, Switzerland

Now
74 °F

Mild.


Feels Like: 77 °F
Forecast: 57 / 86 °F
Wind: 2 mph from North

Location: Zurich Town / Ville.

Current Time: Aug 28, 2015 at 10:08:36 PM

Latest Report: Aug 28, 2015 at 9:00 PM


Visibility: N/A

Pressure: 30.08 "Hg

Humidity: 62%

Dew point: 60 °F

Location of SchlierenLocation

Historic Weather in Schlieren — Graph

°F

Schlieren temperature yesterday

Maximum temperature yesterday: 83 °F (at 6:00 PM)
Minimum temperature yesterday: 62 °F (at 6:00 AM)
Average temperature yesterday: 72 °F

Past Weeks' High & Low Weather Summary

 TemperatureHumidityPressure
High86 °F (Aug 28, 4:00 PM)98% (Aug 16, 4:00 AM)30.26 "Hg (Aug 16, 4:00 AM)
Low52 °F (Aug 20, 7:00 AM)34% (Aug 28, 5:00 PM)29.70 "Hg (Aug 24, 2:00 PM)
Average63 °F75%29.98 "Hg
* Reported Aug 13 8:00 PM — Aug 28 8:00 PM, Schlieren, Weather by CustomWeather, © 2015

Note: Actual official high and low records may vary slightly from our data, if they occured in-between our weather recording intervals... More about our weather records

Advertising

Schlieren weather history for previous 24 hours

 ConditionsComfort  
Time TempWeatherWind HumidityBarometerVisibility
8:00 PM
Fri, Aug 28
77 °FWarm.3 mph55%30.05 "HgN/A
7:00 PM82 °FWarm.3 mph45%30.02 "HgN/A
6:00 PM84 °FPleasantly warm.5 mph36%30.01 "HgN/A
5:00 PM86 °FPleasantly warm.7 mph34%30.00 "HgN/A
4:00 PM86 °FPleasantly warm.6 mph36%30.01 "HgN/A
2:00 PM84 °FPassing clouds.7 mph39%30.01 "HgN/A
1:00 PM82 °FWarm.6 mph42%30.02 "HgN/A
12:00 PM79 °FWarm.5 mph48%30.03 "HgN/A
11:00 AM76 °FMild.3 mph53%30.04 "HgN/A
10:00 AM73 °FMild.3 mph62%30.04 "HgN/A
9:00 AM70 °FMild.1 mph67%30.04 "HgN/A
8:00 AM67 °FMild.1 mph76%30.04 "HgN/A
7:00 AM66 °FMild.1 mph76%30.02 "HgN/A
4:00 AM69 °FMild.2 mph68%29.98 "HgN/A
3:00 AM72 °FMild.5 mph59%29.94 "HgN/A
2:00 AM72 °FMild.3 mph59%29.94 "HgN/A
1:00 AM74 °FMild.6 mph55%29.93 "HgN/A
11:00 PM
Thu, Aug 27
72 °FMild.1 mph70%29.91 "HgN/A
10:00 PM72 °FMild.1 mph65%29.90 "HgN/A
Weather by CustomWeather, © 2015

See weather overviewHow to use our weather pages